Hourly Weather Yangirabod

Today, 17 April, Saturday

Time Temperature Precipitation Wind Pressure Humidity
00:00 +16°C° 0 mm 1 mps 724 mmHg 29%
01:00 +16°C° 0 mm 1 mps 724 mmHg 30%
02:00 +15°C° 0 mm 1 mps 724 mmHg 30%
03:00 +15°C° 0 mm 1 mps 724 mmHg 31%
04:00 +15°C° 0 mm 1 mps 724 mmHg 32%
05:00 +16°C° 0 mm 1 mps 724 mmHg 31%
06:00 +18°C° 0 mm 1 mps 725 mmHg 31%
07:00 +19°C° 0 mm 1 mps 725 mmHg 30%
08:00 +21°C° 0 mm 1 mps 725 mmHg 27%
09:00 +22°C° 0 mm 1 mps 726 mmHg 24%
10:00 +24°C° 0 mm 1 mps 726 mmHg 21%
11:00 +24°C° 0 mm 1 mps 726 mmHg 20%
12:00 +25°C° 0 mm 2 mps 726 mmHg 19%
13:00 +26°C° 0 mm 3 mps 725 mmHg 18%
14:00 +25°C° 0 mm 4 mps 725 mmHg 19%
15:00 +25°C° 0 mm 5 mps 725 mmHg 20%
16:00 +24°C° 0 mm 6 mps 725 mmHg 21%
17:00 +23°C° 0 mm 5 mps 725 mmHg 24%
18:00 +22°C° 0 mm 4 mps 725 mmHg 26%
19:00 +20°C° 0 mm 3 mps 725 mmHg 28%
20:00 +20°C° 0 mm 3 mps 725 mmHg 29%
21:00 +19°C° 0 mm 2 mps 726 mmHg 30%
22:00 +19°C° 0 mm 2 mps 726 mmHg 31%
23:00 +18°C° 0 mm 2 mps 726 mmHg 31%

Tomorrow, 18 April, Sunday

Time Temperature Precipitation Wind Pressure Humidity
00:00 +19°C° 0 mm 1 mps 725 mmHg 31%
01:00 +19°C° 0 mm 1 mps 725 mmHg 31%
02:00 +18°C° 0 mm 1 mps 725 mmHg 32%
03:00 +18°C° 0 mm 1 mps 726 mmHg 32%
04:00 +16°C° 0 mm 2 mps 726 mmHg 33%
05:00 +18°C° 0 mm 1 mps 726 mmHg 31%
06:00 +20°C° 0 mm 1 mps 727 mmHg 29%
07:00 +19°C° 0 mm 0 mps 727 mmHg 27%
08:00 +20°C° 0 mm 0 mps 727 mmHg 24%
09:00 +24°C° 0 mm 1 mps 727 mmHg 22%
10:00 +25°C° 0 mm 1 mps 728 mmHg 20%
11:00 +26°C° 0 mm 2 mps 727 mmHg 20%
12:00 +26°C° 0 mm 3 mps 727 mmHg 19%
13:00 +27°C° 0 mm 4 mps 727 mmHg 19%
14:00 +27°C° 0 mm 3 mps 727 mmHg 19%
15:00 +26°C° 0 mm 3 mps 726 mmHg 19%
16:00 +26°C° 0 mm 2 mps 726 mmHg 19%
17:00 +25°C° 0 mm 2 mps 726 mmHg 21%
18:00 +23°C° 0 mm 2 mps 726 mmHg 24%
19:00 +22°C° 0 mm 1 mps 726 mmHg 26%
20:00 +21°C° 0 mm 1 mps 726 mmHg 27%
21:00 +20°C° 0 mm 1 mps 725 mmHg 28%
22:00 +20°C° 0 mm 1 mps 725 mmHg 29%
23:00 +19°C° 0 mm 1 mps 725 mmHg 29%

Day after tomorrow, 19 April, Monday

Time Temperature Precipitation Wind Pressure Humidity
00:00 +19°C° 0 mm 1 mps 725 mmHg 30%
01:00 +17°C° 0 mm 2 mps 724 mmHg 30%
02:00 +17°C° 0 mm 2 mps 724 mmHg 32%
03:00 +16°C° 0 mm 2 mps 724 mmHg 33%
04:00 +16°C° 0 mm 2 mps 724 mmHg 34%
05:00 +17°C° 0 mm 2 mps 724 mmHg 34%
06:00 +18°C° 0 mm 2 mps 724 mmHg 34%
07:00 +19°C° 0 mm 2 mps 724 mmHg 33%
08:00 +21°C° 0 mm 2 mps 724 mmHg 30%
09:00 +23°C° 0 mm 2 mps 724 mmHg 27%
10:00 +25°C° 0 mm 2 mps 724 mmHg 24%
11:00 +25°C° 0 mm 1 mps 724 mmHg 22%
12:00 +26°C° 0 mm 1 mps 723 mmHg 20%
13:00 +27°C° 0 mm 1 mps 723 mmHg 18%
14:00 +27°C° 0 mm 1 mps 723 mmHg 18%
15:00 +27°C° 0 mm 1 mps 722 mmHg 18%
16:00 +27°C° 0 mm 1 mps 722 mmHg 17%
17:00 +25°C° 0 mm 1 mps 722 mmHg 20%
18:00 +24°C° 0 mm 1 mps 722 mmHg 23%
19:00 +21°C° 0 mm 2 mps 722 mmHg 26%
20:00 +21°C° 0 mm 2 mps 721 mmHg 29%
21:00 +20°C° 0 mm 2 mps 721 mmHg 31%
22:00 +19°C° 0 mm 2 mps 721 mmHg 34%
23:00 +18°C° 0 mm 2 mps 721 mmHg 35%

20 April, Tuesday

Time Temperature Precipitation Wind Pressure Humidity
00:00 +18°C° 0 mm 2 mps 720 mmHg 36%
01:00 +18°C° 0 mm 2 mps 720 mmHg 36%
02:00 +17°C° 0 mm 2 mps 720 mmHg 37%
03:00 +17°C° 0 mm 2 mps 720 mmHg 37%
04:00 +16°C° 0 mm 2 mps 720 mmHg 38%
05:00 +17°C° 0 mm 2 mps 720 mmHg 38%
06:00 +19°C° 0 mm 1 mps 721 mmHg 37%
07:00 +20°C° 0 mm 1 mps 721 mmHg 37%
08:00 +21°C° 0 mm 1 mps 722 mmHg 33%
09:00 +22°C° 0 mm 1 mps 722 mmHg 30%
10:00 +23°C° 0 mm 2 mps 722 mmHg 27%
11:00 +22°C° 0 mm 3 mps 722 mmHg 29%
12:00 +22°C° 0 mm 5 mps 722 mmHg 32%
13:00 +22°C° 0 mm 6 mps 722 mmHg 35%
14:00 +21°C° 0.1 mm 5 mps 722 mmHg 40%
15:00 +20°C° 0.1 mm 5 mps 722 mmHg 45%
16:00 +19°C° 0.1 mm 4 mps 722 mmHg 50%
17:00 +18°C° 0 mm 3 mps 722 mmHg 53%
18:00 +17°C° 0 mm 2 mps 722 mmHg 55%
19:00 +17°C° 0 mm 2 mps 722 mmHg 58%
20:00 +16°C° 0 mm 2 mps 722 mmHg 58%
21:00 +16°C° 0 mm 2 mps 722 mmHg 59%
22:00 +15°C° 0 mm 2 mps 721 mmHg 60%
23:00 +15°C° 0 mm 2 mps 721 mmHg 61%

21 April, Wednesday

Time Temperature Precipitation Wind Pressure Humidity
00:00 +15°C° 0 mm 2 mps 721 mmHg 62%
01:00 +14°C° 0 mm 1 mps 721 mmHg 63%
02:00 +14°C° 0 mm 2 mps 721 mmHg 64%
03:00 +13°C° 0 mm 2 mps 721 mmHg 66%
04:00 +13°C° 0 mm 2 mps 721 mmHg 67%
05:00 +14°C° 0 mm 2 mps 722 mmHg 65%
06:00 +15°C° 0 mm 2 mps 723 mmHg 62%
07:00 +16°C° 0 mm 2 mps 723 mmHg 60%
08:00 +17°C° 0 mm 2 mps 723 mmHg 55%
09:00 +20°C° 0 mm 1 mps 723 mmHg 49%
10:00 +21°C° 0 mm 1 mps 723 mmHg 44%
11:00 +21°C° 0 mm 2 mps 723 mmHg 40%
12:00 +22°C° 0 mm 3 mps 723 mmHg 37%
13:00 +23°C° 0 mm 4 mps 723 mmHg 33%
14:00 +22°C° 0 mm 5 mps 724 mmHg 33%
15:00 +22°C° 0 mm 5 mps 724 mmHg 33%
16:00 +21°C° 0 mm 6 mps 724 mmHg 33%
17:00 +20°C° 0 mm 6 mps 724 mmHg 37%
18:00 +17°C° 0 mm 6 mps 725 mmHg 41%
19:00 +15°C° 0 mm 6 mps 725 mmHg 45%
20:00 +14°C° 0 mm 5 mps 725 mmHg 47%
21:00 +13°C° 0 mm 5 mps 725 mmHg 49%
22:00 +12°C° 0 mm 4 mps 725 mmHg 51%
23:00 +11°C° 0 mm 4 mps 726 mmHg 52%

22 April, Thursday

Time Temperature Precipitation Wind Pressure Humidity
00:00 +10°C° 0 mm 4 mps 726 mmHg 53%
01:00 +10°C° 0 mm 4 mps 726 mmHg 54%
02:00 +8°C° 0 mm 4 mps 726 mmHg 54%
03:00 +8°C° 0 mm 4 mps 726 mmHg 55%
04:00 +7°C° 0 mm 4 mps 726 mmHg 55%
05:00 +8°C° 0 mm 4 mps 726 mmHg 50%
06:00 +10°C° 0 mm 4 mps 727 mmHg 46%
07:00 +11°C° 0 mm 4 mps 727 mmHg 41%
08:00 +13°C° 0 mm 4 mps 727 mmHg 35%
09:00 +15°C° 0 mm 4 mps 727 mmHg 30%
10:00 +18°C° 0 mm 4 mps 727 mmHg 24%
11:00 +19°C° 0 mm 4 mps 727 mmHg 22%
12:00 +21°C° 0 mm 4 mps 727 mmHg 19%
13:00 +22°C° 0 mm 4 mps 727 mmHg 17%
14:00 +21°C° 0 mm 4 mps 727 mmHg 19%
15:00 +21°C° 0 mm 5 mps 727 mmHg 21%
16:00 +21°C° 0 mm 6 mps 727 mmHg 24%
17:00 +19°C° 0 mm 6 mps 727 mmHg 28%
18:00 +16°C° 0 mm 5 mps 727 mmHg 33%
19:00 +15°C° 0 mm 5 mps 727 mmHg 37%
20:00 +14°C° 0 mm 5 mps 727 mmHg 39%
21:00 +13°C° 0 mm 4 mps 727 mmHg 42%
22:00 +12°C° 0 mm 4 mps 727 mmHg 44%
23:00 +12°C° 0 mm 4 mps 727 mmHg 47%
Show more